Location: Fontevrault
(47.1823°N, 0.0493°E)
Time: 03:37:41
(UTC+00:00)

Meteor 1-21 Rocket - Pass Details

Date: 31 October 2021
Orbit: 834 x 907 km, 81.2° (Epoch: 07 December)

Event Time Altitude Azimuth Distance (km) Brightness Sun altitude
Rises 18:27:06 0° 330° (NNW) 3,537 7.8 -17.9°
Reaches altitude 10° 18:31:26 10° 300° (WNW) 2,595 7.6 -18.6°
Maximum altitude 18:33:21 12° 281° (W) 2,474 7.8 -18.9°
Drops below altitude 10° 18:35:16 10° 262° (W) 2,591 8.0 -19.2°
Sets 18:39:36 0° 232° (SW) 3,522 8.2 -20.0°
